Waarnemingen

Advertentie
Mijn weer
South Uist Range, Groot Brittannië (3023): temperatuur & dauwpunt: 20.09.2018 16:00:00 - 26.09.2018 16:00:00 (BST)South Uist Range, Groot Brittannië (3023): temperatuur -20cm & temperatuur -100cm: 20.09.2018 16:00:00 - 26.09.2018 16:00:00 (BST)South Uist Range, Groot Brittannië (3023): windsnelheid & windstoten: 20.09.2018 16:00:00 - 26.09.2018 16:00:00 (BST)South Uist Range, Groot Brittannië (3023): windrichting: 20.09.2018 16:00:00 - 26.09.2018 16:00:00 (BST)South Uist Range, Groot Brittannië (3023): luchtdruk: 20.09.2018 16:00:00 - 26.09.2018 16:00:00 (BST)South Uist Range, Groot Brittannië (3023): zicht: 20.09.2018 16:00:00 - 26.09.2018 16:00:00 (BST)South Uist Range, Groot Brittannië (3023): neerslag: 20.09.2018 16:00:00 - 26.09.2018 16:00:00 (BST)
Datum & Tijd tt [°C] td [°C] tt -20cm [°C] tt -100cm [°C] ff [km/u] ff [kn] fx [km/u] fx [kn] dd ppp [hPa] vv [km] rr [mm]
26.09.2018 16:00:00 - - - - - - - - - - - -
26.09.2018 15:00:00 12,9 12,6 - - 18 10 - - WZW 1021,7 11 0,0
26.09.2018 14:00:00 12,9 12,5 - - 18 10 - - WZW 1021,6 3,7 0,4
26.09.2018 13:00:00 13,4 12,4 - - 22 12 - - WZW 1021,3 13 0,0
26.09.2018 12:00:00 13,3 12,3 - - 24 13 - - WZW 1020,8 22 0,0
26.09.2018 11:00:00 13,2 12,4 - - 24 13 - - W 1020,3 11 0,0
26.09.2018 10:00:00 12,8 12,5 11,7 12,0 22 12 - - WZW 1019,3 17 0,0
26.09.2018 09:00:00 12,5 12,3 - - 22 12 - - W 1018,5 6 0,0
26.09.2018 08:00:00 12,5 12,3 - - 22 12 - - W 1017,6 9 0,2
26.09.2018 07:00:00 12,8 12,7 - - 28 15 - - W 1016,5 1,0 0,0
26.09.2018 06:00:00 13,2 13,0 - - 34 18 - - WZW 1015,5 6 0,0
26.09.2018 05:00:00 13,2 13,1 - - 35 19 50 27 WZW 1015,1 2,9 0,8
26.09.2018 04:00:00 13,4 13,2 - - 41 22 54 29 WZW 1014,4 1,7 0,4
26.09.2018 03:00:00 13,4 13,2 - - 44 24 59 32 ZW 1014,0 3,5 0,4
26.09.2018 02:00:00 13,3 13,1 - - 46 25 61 33 ZW 1013,9 1,8 0,8
26.09.2018 01:00:00 13,3 13,1 - - 48 26 67 36 ZW 1014,0 1,8 0,0
26.09.2018 00:00:00 13,3 13,1 - - 52 28 68 37 ZW 1014,1 2,0 0,0
25.09.2018 23:00:00 13,2 13,0 - - 48 26 67 36 ZZW 1014,5 1,8 0,0
25.09.2018 22:00:00 13,2 13,0 - - 48 26 65 35 ZW 1014,8 1,8 0,0
25.09.2018 21:00:00 13,1 12,9 - - 50 27 68 37 ZZW 1014,8 2,1 0,2
25.09.2018 20:00:00 13,2 12,9 - - 52 28 70 38 ZZW 1014,8 2,3 0,0
25.09.2018 19:00:00 13,0 12,7 - - 55 30 74 40 ZZW 1014,9 1,8 0,2
25.09.2018 18:00:00 12,9 12,6 - - 55 30 76 41 ZZW 1015,6 2,1 0,2
25.09.2018 17:00:00 12,9 12,5 - - 55 30 80 43 ZZW 1016,4 3,0 0,2
25.09.2018 16:00:00 12,8 12,5 - - 57 31 78 42 ZZW 1017,0 4,0 0,0
25.09.2018 15:00:00 12,6 12,4 - - 57 31 78 42 ZZW 1017,3 4,2 0,6
25.09.2018 14:00:00 11,8 11,6 - - 59 32 78 42 Z 1018,0 1,2 1,0
25.09.2018 13:00:00 10,8 10,6 - - 55 30 81 44 Z 1019,1 1,5 1,6
25.09.2018 12:00:00 10,3 9,9 - - 59 32 81 44 Z 1019,9 2,8 0,2
25.09.2018 11:00:00 10,3 9,8 - - 57 31 78 42 Z 1020,9 6 1,0
25.09.2018 10:00:00 10,2 9,0 11,7 12,0 50 27 67 36 Z 1022,5 4,7 0,2
25.09.2018 09:00:00 10,9 8,5 - - 46 25 61 33 Z 1023,6 8 0,0
25.09.2018 08:00:00 11,0 7,8 - - 42 23 59 32 Z 1024,3 25 0,0
25.09.2018 07:00:00 10,7 7,6 - - 39 21 52 28 Z 1025,3 26 0,0
25.09.2018 06:00:00 11,1 7,2 - - 39 21 55 30 Z 1026,6 14 0,0
25.09.2018 05:00:00 11,4 7,8 - - 41 22 57 31 ZZW 1028,1 24 0,0
25.09.2018 04:00:00 11,5 8,4 - - 39 21 57 31 ZZW 1029,0 17 0,0
25.09.2018 03:00:00 11,6 8,8 - - 39 21 50 27 ZZW 1029,8 21 0,0
25.09.2018 02:00:00 11,6 9,0 - - 35 19 46 25 ZZW 1030,0 15 0,0
25.09.2018 01:00:00 11,6 8,9 - - 35 19 46 25 ZZW 1030,8 29 0,0
25.09.2018 00:00:00 11,7 8,3 - - 35 19 48 26 ZW 1031,5 18 0,0
24.09.2018 23:00:00 11,7 8,6 - - 39 21 50 27 ZW 1031,7 12 0,0
24.09.2018 22:00:00 11,7 8,8 - - 37 20 50 27 ZW 1032,0 15 0,0
24.09.2018 21:00:00 11,9 9,0 - - 35 19 50 27 ZW 1032,6 12 0,0
24.09.2018 20:00:00 11,9 9,0 - - 34 18 48 26 WZW 1032,5 11 0,0
24.09.2018 19:00:00 11,8 9,3 - - 34 18 46 25 ZW 1032,5 19 0,0
24.09.2018 18:00:00 10,8 9,2 - - 34 18 50 27 W 1032,9 4,4 0,0
24.09.2018 17:00:00 12,1 8,7 - - 34 18 - - WZW 1033,2 18 0,0
24.09.2018 16:00:00 12,1 8,8 - - 29 16 - - WZW 1033,5 25 0,0
24.09.2018 15:00:00 12,1 8,0 - - 34 18 - - WZW 1033,8 21 0,0
24.09.2018 14:00:00 12,3 8,1 - - 28 15 - - WZW 1033,9 30 0,0
24.09.2018 13:00:00 12,6 7,0 - - 28 15 - - WZW 1034,0 24 0,0
24.09.2018 12:00:00 12,1 7,2 - - 26 14 - - WZW 1034,0 30 0,0
24.09.2018 11:00:00 11,4 6,6 - - 24 13 - - W 1033,8 19 0,0
24.09.2018 10:00:00 11,1 6,1 11,4 12,0 28 15 - - W 1033,5 35 0,0
24.09.2018 09:00:00 10,5 6,4 - - 26 14 - - W 1033,0 24 0,0
24.09.2018 08:00:00 9,9 6,5 - - 21 11 - - W 1032,6 23 0,2
24.09.2018 07:00:00 10,0 5,9 - - 28 15 - - W 1032,4 30 0,0
24.09.2018 06:00:00 10,0 5,6 - - 26 14 - - W 1032,3 11 0,0
24.09.2018 05:00:00 10,0 5,2 - - 29 16 - - WNW 1032,1 30 0,0
24.09.2018 04:00:00 9,8 4,8 - - 35 19 - - W 1031,9 50 0,0
24.09.2018 03:00:00 10,1 5,8 - - 29 16 - - W 1031,7 15 0,0
24.09.2018 02:00:00 9,9 5,7 - - 28 15 - - W 1031,4 29 0,0
24.09.2018 01:00:00 9,9 4,7 - - 29 16 48 26 W 1031,2 45 0,0
24.09.2018 00:00:00 10,0 5,1 - - 29 16 46 25 W 1030,8 17 0,0
23.09.2018 23:00:00 10,1 5,5 - - 28 15 - - WNW 1030,4 17 0,0
23.09.2018 22:00:00 10,3 5,2 - - 29 16 - - WNW 1029,8 14 0,0
23.09.2018 21:00:00 10,0 5,4 - - 28 15 - - W 1029,4 23 0,0
23.09.2018 20:00:00 10,0 2,7 - - 29 16 - - WNW 1029,1 30 0,0
23.09.2018 19:00:00 9,9 3,2 - - 22 12 - - NW 1028,3 40 0,0
23.09.2018 18:00:00 11,0 3,6 - - 28 15 - - NW 1027,6 24 0,0
23.09.2018 17:00:00 10,5 3,3 - - 29 16 - - NW 1026,6 24 0,0
23.09.2018 16:00:00 11,0 3,2 - - 29 16 46 25 NW 1025,8 50 0,0
23.09.2018 15:00:00 11,0 6,7 - - 26 14 50 27 NNW 1025,1 13 0,0
23.09.2018 14:00:00 11,2 4,2 - - 35 19 48 26 NW 1024,1 40 0,0
23.09.2018 13:00:00 10,3 5,4 - - 34 18 54 29 NW 1023,2 35 0,0
23.09.2018 12:00:00 11,2 6,0 - - 28 15 - - NW 1022,2 45 0,0
23.09.2018 11:00:00 9,7 4,6 - - 28 15 46 25 NNW 1021,3 30 0,6
23.09.2018 10:00:00 9,0 4,9 11,7 12,2 22 12 - - NW 1020,3 26 0,0
23.09.2018 09:00:00 8,0 4,8 - - 15 8 - - NNW 1019,5 29 0,2
23.09.2018 08:00:00 7,2 4,7 - - 13 7 - - N 1018,7 30 1,2
23.09.2018 07:00:00 8,5 4,2 - - 18 10 - - NW 1017,9 35 0,0
23.09.2018 06:00:00 8,1 4,2 - - 18 10 - - NNW 1017,6 25 0,4
23.09.2018 05:00:00 7,8 5,2 - - 21 11 - - NNW 1017,1 10 0,0
23.09.2018 04:00:00 7,6 4,9 - - 13 7 - - NNW 1016,8 45 0,6
23.09.2018 03:00:00 7,2 6,1 - - 13 7 - - NO 1016,8 30 0,0
23.09.2018 02:00:00 7,8 4,5 - - 15 8 - - NW 1016,6 50 0,0
23.09.2018 01:00:00 8,1 5,2 - - 16 9 - - NW 1016,3 50 1,0
23.09.2018 00:00:00 7,3 5,3 - - 9 5 - - NNW 1016,2 50 0,0
22.09.2018 23:00:00 9,0 6,2 - - 13 7 - - NW 1015,9 21 0,0
22.09.2018 22:00:00 8,7 5,8 - - 15 8 - - NW 1015,7 30 0,0
22.09.2018 21:00:00 9,5 5,3 - - 21 11 - - WNW 1015,2 28 0,0
22.09.2018 20:00:00 8,7 6,3 - - 22 12 - - W 1014,9 24 0,0
22.09.2018 19:00:00 9,3 4,7 - - 21 11 48 26 WNW 1014,4 29 0,2
22.09.2018 18:00:00 10,2 5,6 - - 18 10 - - WNW 1013,9 45 0,0
22.09.2018 17:00:00 11,2 6,1 - - 22 12 - - WNW 1013,9 20 0,2
22.09.2018 16:00:00 10,0 6,5 - - 22 12 - - W 1013,9 9 0,0
22.09.2018 15:00:00 10,2 6,1 - - 21 11 - - NW 1013,8 18 0,0
22.09.2018 14:00:00 11,4 5,5 - - 29 16 - - WNW 1013,5 24 0,0
22.09.2018 13:00:00 11,7 5,3 - - 24 13 - - WNW 1013,0 30 0,0
22.09.2018 12:00:00 11,3 6,0 - - 29 16 - - WNW 1012,6 30 0,0
22.09.2018 11:00:00 11,7 5,5 - - 29 16 - - WNW 1012,2 30 0,0
22.09.2018 10:00:00 10,0 5,1 11,7 12,2 28 15 - - WNW 1011,7 24 0,0
22.09.2018 09:00:00 10,2 5,5 - - 29 16 46 25 WNW 1011,3 17 0,0
22.09.2018 08:00:00 9,4 5,0 - - 37 20 57 31 WNW 1010,8 35 0,8
22.09.2018 07:00:00 9,6 5,5 - - 39 21 54 29 WNW 1010,5 8 0,0
22.09.2018 06:00:00 9,6 6,2 - - 34 18 55 30 W 1010,0 15 0,2
22.09.2018 05:00:00 9,0 6,2 - - 31 17 59 32 W 1009,7 15 0,4
22.09.2018 04:00:00 10,0 5,1 - - 42 23 61 33 WNW 1009,4 12 0,0
22.09.2018 03:00:00 10,1 4,5 - - 44 24 59 32 W 1009,0 21 0,0
22.09.2018 02:00:00 10,0 5,3 - - 44 24 65 35 WNW 1008,4 12 0,0
22.09.2018 01:00:00 9,1 6,6 - - 46 25 65 35 WNW 1008,0 10 0,2
22.09.2018 00:00:00 10,2 4,7 - - 42 23 63 34 W 1007,5 17 0,0
21.09.2018 23:00:00 10,3 6,3 - - 42 23 59 32 W 1006,9 18 0,0
21.09.2018 22:00:00 10,1 5,4 - - 44 24 59 32 W 1006,6 18 0,0
21.09.2018 21:00:00 10,2 5,0 - - 44 24 61 33 W 1006,0 27 0,0
21.09.2018 20:00:00 9,9 5,2 - - 42 23 55 30 W 1005,3 18 0,0
21.09.2018 19:00:00 10,2 5,5 - - 39 21 55 30 W 1004,7 13 0,8
21.09.2018 18:00:00 10,4 7,2 - - 31 17 48 26 WZW 1004,3 18 0,0
21.09.2018 17:00:00 10,8 5,0 - - 37 20 50 27 W 1004,0 35 0,0
21.09.2018 16:00:00 11,8 6,4 - - 28 15 - - W 1003,6 23 0,0
21.09.2018 15:00:00 11,6 6,0 - - 28 15 - - WNW 1003,1 30 0,0
21.09.2018 14:00:00 12,5 6,3 - - 26 14 - - NW 1002,3 30 0,0
21.09.2018 13:00:00 11,7 5,7 - - 28 15 - - NNW 1001,0 45 0,0
21.09.2018 12:00:00 11,7 6,5 - - 24 13 54 29 NNW 999,7 18 0,4
21.09.2018 11:00:00 10,7 6,8 - - 21 11 - - N 998,5 28 0,0
21.09.2018 10:00:00 9,2 7,7 12,0 12,4 18 10 - - N 997,1 35 0,0
21.09.2018 09:00:00 8,5 6,8 - - 34 18 48 26 N 995,8 8 0,2
21.09.2018 08:00:00 8,8 7,0 - - 31 17 - - N 994,5 40 0,4
21.09.2018 07:00:00 8,7 7,2 - - 26 14 - - N 993,9 11 0,0
21.09.2018 06:00:00 8,3 5,6 - - 11 6 - - NW 993,2 17 0,0
21.09.2018 05:00:00 9,0 5,7 - - 15 8 - - W 993,2 22 0,0
21.09.2018 04:00:00 9,8 5,7 - - 21 11 - - W 993,5 40 0,0
21.09.2018 03:00:00 10,0 6,0 - - 24 13 - - W 993,8 27 0,0
21.09.2018 02:00:00 9,9 5,7 - - 28 15 - - W 994,1 25 0,0
21.09.2018 01:00:00 9,8 6,0 - - 28 15 - - WZW 994,3 28 0,0
21.09.2018 00:00:00 9,7 5,5 - - 29 16 - - WZW 994,6 13 0,0
20.09.2018 23:00:00 9,9 5,5 - - 26 14 - - WZW 995,4 26 0,0
20.09.2018 22:00:00 10,2 6,0 - - 24 13 - - WZW 996,1 20 0,0
20.09.2018 21:00:00 10,6 6,7 - - 22 12 - - WZW 996,5 13 0,0
20.09.2018 20:00:00 10,5 6,9 - - 24 13 - - WZW 996,7 20 0,0
20.09.2018 19:00:00 11,2 6,6 - - 31 17 - - WZW 997,0 14 0,0
20.09.2018 18:00:00 11,3 7,7 - - 35 19 50 27 WZW 997,2 13 0,0
20.09.2018 17:00:00 11,4 8,3 - - 35 19 48 26 WZW 998,0 14 0,0
20.09.2018 16:00:00 11,6 8,6 - - 37 20 54 29 WZW 998,4 16 0,0

tt = temperatuur
td = dauwpunt
tt -20cm = temperatuur -20cm
tt -100cm = temperatuur -100cm
ff = windsnelheid
fx = windstoten
dd = windrichting
ppp = luchtdruk
vv = zicht
rr = neerslag

Weerstations in de omgeving